Regional Weather Roundup
Issued by NWS

Home | Current Version | Previous Version | Text Only | Print | Product List | Glossary On
Versions: 1 2 3 4 5 6 7 8 9 10 11 12 13 14 15 16 17 18 19 20 21 22 23 24 25 26 27 28 29 30 31 32 33 34 35 36 37 38 39 40 41 42 43 44 45 46 47 48 49 50
692
ASUS46 KPQR 101610
RWROR

OREGON REGIONAL WEATHER ROUNDUP
NATIONAL WEATHER SERVICE PORTLAND OR
800 AM PST WED FEB 10 2016

NOTE: "FAIR" INDICATES FEW OR NO CLOUDS BELOW 12,000 FEET WITH
NO SIGNIFICANT WEATHER AND/OR OBSTRUCTIONS TO VISIBILITY.

ORZ001>013-101700-
NORTHWEST OREGON


CITY           SKY/WX    TMP DP  RH WIND       PRES   REMARKS
ASTORIA        RAIN      52  49  89 S17G30    30.15R FOG
NEWPORT        CLOUDY    52  50  93 S15G22    30.23S
PORTLAND       CLOUDY    47  38  71 SE14      30.21R
VANCOUVER WA   CLOUDY    46  38  73 SE13      30.20R
SCAPPOOSE      CLOUDY    42  40  92 CALM      30.19S
HILLSBORO      CLOUDY    41  40  96 CALM      30.20S
AURORA         CLOUDY    42  41  96 CALM      30.22R
MCMINNVILLE    CLOUDY    41  39  93 CALM      30.21S
SALEM          CLOUDY    44  41  89 SE6       30.20S
CORVALLIS      CLOUDY    41  39  93 CALM      30.22R
EUGENE         CLOUDY    44  42  93 S6        30.23R
$$

ORZ021-028-101700-
SOUTHWEST OREGON


CITY           SKY/WX    TMP DP  RH WIND       PRES   REMARKS
NORTH BEND     CLOUDY    48  46  93 SE8       30.25R
BROOKINGS      CLOUDY    53  49  86 VRB5      30.28S
ROSEBURG       CLOUDY    45  44  97 CALM      30.26R
SEXTON SUMMIT  MOCLDY    47  34  60 SW9       30.26R
MEDFORD        CLOUDY    40  36  86 W5        30.28R
$$

ORZ014>016-041-101700-
COLUMBIA GORGE


CITY           SKY/WX    TMP DP  RH WIND       PRES   REMARKS
TROUTDALE      CLOUDY    47  37  68 E20       30.21R
THE DALLES     MOCLDY    34  32  92 CALM      30.31R
$$

ORZ029>031-041-044-049-050-061>064-502-503-505>511-101700-
EASTERN OREGON


CITY           SKY/WX    TMP DP  RH WIND       PRES   REMARKS
REDMOND        PTCLDY    40  31  70 SE5       30.24S
BEND           PTCLDY    37  30  75 SE9       30.24S WCI  31
PRINEVILLE     PTCLDY    39  32  75 CALM      30.27R
KLAMATH FALLS  MOCLDY    33  29  85 E3        30.31R
LAKEVIEW       CLEAR     27  23  86 NW3       30.37R
HERMISTON      CLOUDY    30  29  96 E3        30.27S
PENDLETON      MOCLDY    32  30  92 NW5       30.24R WCI  27
JOHN DAY       CLEAR     38  29  70 E9        30.30R WCI  31
MEACHAM        PTCLDY    36  28  73 CALM      30.26R
LA GRANDE      CLEAR     37  27  65 S26G33    30.34R WCI  26
BAKER CITY     CLOUDY    28  26  92 SW3       30.40R
BURNS          FOG       26  23  88 CALM      30.38S VSB 1/4
ROME             N/A     28  27  96 S3        30.38R
ONTARIO        CLOUDY    31  28  89 NE3       30.48R FOG
$$




USA.gov is the U.S. government's official web portal to all federal, state and local government web resources and services.